Torna al catalogo

COSMOS 1275 DEB

AttivoPO
NORAD 13020·DEBRIS·🇷🇺 Russia

Lanciato Jun 4, 1981 da Plesetsk Cosmodrome

Loading…

Prossimi Passaggi (prossime 24 ore)

TLE

AggiornatoSource: Space-Track

Epoca: Sep 14, 2026, 04:10 UTC

1 13020U 81053ES  26257.17368319  .00000439  00000-0  39182-3 0  9995
2 13020  82.6931 152.8446 0111426 268.3209 245.3921 13.79912955242658

Traccia COSMOS 1275 DEB in tempo reale con AllMySat

Download on the App Store